{"data":{"norad_id":36395,"intl_designator":"2010-005A","name":"SDO","alt_names":[],"object_type":"PAYLOAD","status":"ACTIVE","operator":null,"country":"US","launch_date":"2010-02-11","launch_site_code":"AFETR","launch_vehicle":null,"mission":null,"orbit_class":"UNKNOWN","rcs_meters":5.1714,"size_class":null,"mass_kg":null,"dimensions":null,"purposes":["comms","science"],"wikipedia_slug":null,"has_3d_model":false,"image_url":null,"decayed_at":null,"tle_current":{"epoch":"2026-05-24T11:29:17.443968Z","epoch_age_seconds":114022,"freshness":"FRESH","line1":"1 36395U 10005A   26144.47867412 -.00000069  00000+0  00000+0 0  9992","line2":"2 36395  34.6052  86.6986 0001507  38.9965 186.8070  1.00271458 59826","mean_motion":1.00271458,"eccentricity":0.0001507,"inclination_deg":34.6052,"raan_deg":86.6986,"arg_perigee_deg":38.9965,"mean_anomaly_deg":186.807,"bstar":0,"rev_number":5982,"period_min":1436.101587353,"perigee_km":35780.332392489,"apogee_km":35793.040870331,"semimajor_km":42164.82363141,"source":"CELESTRAK","updated_at":"2026-05-25T13:38:24.639823Z"}}}